FREGAT R/B (43509 NORAD) Tracking and Keplerian Element Data

This shows tracking and keplerian element data for the satellite.

Feedback or suggestion? Click here.




ElementValue
Catalog43509
NameFREGAT R/B
Epoch Orbit57
Epoch Day195.21830849
Epoch Year2018
RAAN170.7362
Inclination64.8794
Eccentricity0.0090308
Argument of Perigee122.0932
Mean Anonmoly238.7617
Mean Motion2.09216849
Decay Rate4.8E-07
L11 43509U 18053B 18195.21830849 .00000048 00000-0 00000+0 0 9998
L22 43509 64.8794 170.7362 0090308 122.0932 238.7617 2.09216849 573



Live tracking and technical data element details for FREGAT R/B (NORAD 43509). FREGAT R/B can be tracked NOW for your location showing map with azimuth and elevation plus other details from your city location.







IsCatalogInMostPopularTable: catalog: 43509, numindb: 360
Update: records affected: 1



GetName: 43509 FREGAT R/B

Hit Count: updated at: Fri, 16 May 2025 10:32:47 GMT